Regional Weather Roundup
Issued by NWS

Home | Current Version | Previous Version | Graphics & Text | Print | Product List | Glossary On
Versions: 1 2 3 4 5 6 7 8 9 10 11 12 13 14 15 16 17 18 19 20 21 22 23 24 25 26 27 28 29 30 31 32 33 34 35 36 37 38 39 40 41 42 43 44 45 46 47 48 49 50
000
ASUS43 KOAX 051702
RWRNE

WEATHER ROUNDUP FOR NEBRASKA
NATIONAL WEATHER SERVICE OMAHA NE
1200 PM CDT TUE MAY 05 2015

NOTES: SATELLITE DATA IS BEING USED TO AUGMENT CLOUD COVER ABOVE
       12000 FEET.
       "FAIR" INDICATES FEW OR NO CLOUDS BELOW 12,000 FEET WITH NO
       SIGNIFICANT WEATHER AND/OR OBSTRUCTIONS TO VISIBILITY.

  * THESE STATIONS DO NOT REPORT WEATHER SUCH AS RAIN...SNOW OR FOG.

NEZ001>004-019>022-054>056-051800-
NEBRASKA PANHANDLE

CITY           SKY/WX    TMP DP  RH WIND       PRES   REMARKS
SCOTTSBLUFF    CLOUDY    59  48  67 SE6       29.97F
ALLIANCE       CLOUDY    58  49  72 S12       29.98F
CHADRON        CLOUDY    57  48  72 SE12      29.98S
KIMBALL        CLOUDY    51  49  92 SE9       29.98S FOG
SIDNEY         CLOUDY    51  47  86 E12       30.00F
$$

NEZ057>060-069>072-079>082-051800-
SOUTHWEST NEBRASKA

CITY           SKY/WX    TMP DP  RH WIND       PRES   REMARKS
NORTH PLATTE   CLOUDY    57  55  93 E8        30.01F
IMPERIAL       CLOUDY    54  53  97 E8        30.00S
MCCOOK         FOG       59  58  96 E8        29.99S VSB 1
$$

NEZ005>010-023>029-035>040-094-051800-
NORTH CENTRAL NEBRASKA

CITY           SKY/WX    TMP DP  RH WIND       PRES   REMARKS
VALENTINE      LGT RAIN  54  52  93 SE9       30.04R
AINSWORTH      RAIN      55  55  99 SE7       30.04F
BROKEN BOW     CLOUDY    60  57  89 SE10      30.03S
ORD            CLOUDY    60  57  89 SE7       30.03S
$$

NEZ041-046>049-061>064-073>077-083>087-051800-
SOUTH CENTRAL NEBRASKA

CITY           SKY/WX    TMP DP  RH WIND       PRES   REMARKS
GRAND ISLAND   CLOUDY    64  59  83 E12       30.05F
AURORA         CLOUDY    65  63  91 SE15      30.05F
HASTINGS       CLOUDY    67  60  78 SE12      30.03F
KEARNEY *      CLOUDY    64  59  82 E13       30.03S
$$

NEZ011>018-030>034-042>045-051800-
NORTHEAST NEBRASKA

CITY           SKY/WX    TMP DP  RH WIND       PRES   REMARKS
NORFOLK        CLOUDY    65  60  84 S10       30.06S
COLUMBUS *     PTSUNNY   66  57  72 SE9       30.09S
TEKAMAH        PTSUNNY   69  63  81 S15       30.08S
$$

NEZ050>053-065>068-078-088>093-051800-
SOUTHEAST NEBRASKA

CITY           SKY/WX    TMP DP  RH WIND       PRES   REMARKS
LINCOLN        PTSUNNY   69  61  75 SE10      30.07F
OMAHA EPPLEY   CLOUDY    71  60  68 S13       30.08F
FALLS CITY     PTSUNNY   73  63  70 SE10      30.09S
PLATTSMOUTH    PTSUNNY   69  61  74 SE12G17   30.09F
$$

NEZ044-045-051>053-067-051800-
OMAHA AREA

CITY           SKY/WX    TMP DP  RH WIND       PRES   REMARKS
OMAHA EPPLEY   CLOUDY    71  60  68 S13       30.08F
PLATTSMOUTH    PTSUNNY   69  61  74 SE12G17   30.09F
$$



USA.gov is the U.S. government's official web portal to all federal, state and local government web resources and services.